Location: Alto de La Loma
(10.3773°N, 66.8867°W)
Time: 00:22:34
(UTC+00:00)

Daily predictions for brighter satellites

Satellite Brightness Start Highest point End
(mag) Time Altitude Azimuth Time Altitude Azimuth Time Altitude Azimuth
Cosmos 2112 Rocket 4.1 00:02:30 10° NNW 00:07:43 75° WSW 00:09:45 38° S
Cosmos 1680 Rocket 4.1 00:06:21 10° NNW 00:11:27 54° WSW 00:15:11 18° S
NOSS 3-4 (A) 3.2 00:06:19 10° SSW 00:12:16 83° WNW 00:14:31 40° NNE
H-2A R/B 2.1 00:10:43 43° S 00:12:17 71° WSW 00:17:10 10° NNW
NOSS 3-4 (C) 3.2 00:06:26 10° SSW 00:12:23 84° WNW 00:14:26 43° NNE
Cosmos 1975 Rocket 3.6 00:09:12 10° NNW 00:13:23 54° W 00:13:45 52° WSW
ARGOS 3.2 00:16:41 67° N 00:16:41 67° N 00:21:18 10° N
ATLAS 2AS CENTAUR R/B 3.2 00:26:28 10° SSW 00:34:00 69° WNW 00:40:32 16° NNE
Milstar 3 Cent rocket 4.2 00:32:24 10° WNW 00:36:22 17° NNW 00:37:15 16° N
CZ-2C R/B 4.4 00:34:00 10° NNW 00:38:53 32° WNW 00:43:47 10° SW
Cosmos 2322 Rocket 4.1 07:40:39 26° ENE 07:40:39 26° ENE 07:43:29 10° NE
SL-16 R/B 4.0 07:49:27 24° NE 07:49:27 24° NE 07:51:39 10° NNE
Cosmos 1238 Rocket 3.8 08:13:13 10° N 08:19:21 75° E 08:24:33 10° S
Cosmos 1777 Rocket 4.3 08:20:18 55° NNE 08:21:08 63° ENE 08:26:15 10° SSE
Intelsat 5-1 Rocket 2.8 08:27:00 75° W 08:27:34 87° SSW 08:40:06 10° ESE
Ariane H10+ 4.4 08:30:18 24° SSE 08:30:18 24° SSE 08:33:18 10° SE
Cosmos 1934 Rocket 3.8 08:27:51 10° NNW 08:33:51 66° W 08:39:56 10° S
Delta 202 4.0 08:33:44 46° NNW 08:33:56 46° N 08:39:01 10° ENE
Milstar 3 Cent rocket 4.3 08:32:02 39° WSW 08:36:22 52° SSW 08:58:00 10° SE
ADEOS 3.5 08:35:10 10° NNE 08:40:23 88° ESE 08:44:26 17° SSW
Cosmos 1814 Rocket 4.4 08:36:06 10° S 08:41:08 59° ESE 08:46:12 10° NNE
IRIDIUM 103 4.4 08:36:33 10° N 08:41:45 75° E 08:46:57 10° S
Meteor 1-27 Rocket 3.7 08:38:21 10° S 08:44:14 78° W 08:50:09 10° N
Delta 142 4.2 08:43:50 47° SW 08:45:42 79° SSE 08:50:51 10° ENE
Cosmos 841 Rocket 3.3 08:43:50 31° SSW 08:46:23 86° W 08:51:36 10° NNE
ERS-2 3.2 08:44:53 10° SSE 08:48:23 44° ENE 08:51:52 10° N
Hubble Space Telescope 2.0 08:49:11 29° S 08:50:09 33° SSE 08:53:52 10° E
Cosmos 1484 Rocket 2.8 08:48:03 10° NNE 08:52:03 84° ESE 08:54:55 19° S
ALOS 2.3 08:48:12 10° NNE 08:52:51 81° ESE 08:57:31 10° S
Palapa 6 Rocket 4.3 08:49:23 35° WNW 08:53:01 90° E 09:01:08 10° ESE
Cosmos 1869 Rocket 3.6 08:49:18 10° N 08:53:36 75° E 08:57:54 10° S
H-2A R/B 1.9 08:50:21 10° S 08:54:30 64° WSW 08:58:46 10° NNW
PAYLOAD A 4.1 08:54:37 35° SW 08:56:08 52° SSE 09:06:13 10° E
Cosmos 1605 Rocket 3.9 08:50:56 10° N 08:57:15 69° W 09:03:34 10° S
Cosmos 1570 Rocket 3.9 08:55:26 23° SSW 08:58:40 63° WNW 09:03:55 10° N
IRIDIUM 106 4.2 08:54:53 10° N 09:00:02 66° W 09:05:12 10° S
Delta 2 Rocket 4.3 09:01:32 23° S 09:02:46 31° SE 09:05:46 10° ENE
Meteor 1-31 Rocket 2.6 08:58:58 10° N 09:02:48 84° W 09:06:41 10° SSW
CZ-3 Stage 3 3.7 09:04:26 37° WSW 09:05:35 50° SSW 09:14:00 10° SE
Sakura Rocket 3.6 09:04:29 22° NW 09:06:36 42° NNE 09:10:05 10° E
Cosmos 2360 Rocket 2.2 09:02:18 16° SSW 09:06:40 56° WNW 09:12:13 10° N
PSLV R/B 4.3 09:06:25 27° NW 09:07:41 37° N 09:15:32 10° ENE
SJ 16-02 2.5 09:04:26 10° N 09:08:36 44° ENE 09:12:47 10° SSE
Meteor 2-20 4.5 09:03:03 10° S 09:09:12 85° E 09:15:20 10° N
Shenzhou-11 Module 1.9 09:13:01 47° ESE 09:13:01 47° ESE 09:14:38 10° SE
OAO 1 4.4 09:10:17 22° WNW 09:13:52 80° SW 09:19:22 10° SE
CZ-3A R/B 3.8 09:15:20 10° SSE 09:16:56 12° SE 09:19:13 10° ESE
OAO 3 Rocket 3.2 09:14:40 22° SW 09:17:49 90° NW 09:22:46 10° NE
CZ-4B R/B 1.7 09:15:22 10° SSE 09:18:22 60° ENE 09:21:24 10° N
Cosmos 2322 Rocket 3.7 09:22:33 17° WNW 09:22:33 17° WNW 09:25:45 10° NNW
SJ-12 3.8 09:23:41 10° N 09:27:47 68° WNW 09:31:53 10° SSW
Cosmos 540 Rocket 4.4 09:26:18 15° WSW 09:29:28 26° WNW 09:33:43 10° NNW
Sylda 5 2.6 09:27:43 19° WSW 09:30:05 58° S 09:36:24 10° E
Cosmos 1500 4.4 09:27:43 10° NW 09:30:31 20° W 09:33:19 10° SW
Cosmos 2100 Rocket 4.2 09:25:45 10° N 09:32:07 82° E 09:38:26 10° S
Intercosmos 25 4.4 09:25:43 10° SSW 09:33:28 63° W 09:38:09 10° N
Cosmos 2123 Rocket 3.9 09:28:51 10° S 09:35:02 75° W 09:41:15 10° N
Cosmos 1666 2.8 09:32:51 10° NNW 09:36:28 47° W 09:40:05 10° SSW
Cosmos 990 Rocket 4.5 09:32:45 10° N 09:37:54 66° ENE 09:43:05 10° SSE
FENGYUN 3A 4.5 09:34:54 10° NNW 09:39:26 28° WNW 09:43:59 10° SW
Cosmos 1703 Rocket 4.0 09:35:41 10° S 09:39:58 67° E 09:44:15 10° N
H-2A R/B 3.9 09:40:26 10° NNE 09:43:57 46° E 09:47:29 10° S
Cosmos 2242 Rocket 3.5 09:39:50 10° S 09:44:13 71° W 09:48:35 10° N
SAR-Lupe-4 3.5 09:40:50 10° S 09:44:22 61° WSW 09:47:53 10° NNW
Cosmos 2263 Rocket 2.2 09:38:50 10° NNW 09:44:30 87° WSW 09:50:11 10° SSE
Chandra Rocket (1) 4.0 09:37:33 10° NW 09:45:37 32° N 09:48:58 10° ENE
H-2A R/B 2.7 09:47:52 10° NNE 09:52:17 86° E 09:56:48 10° S
Cosmos 1459 Rocket 3.9 09:47:02 10° N 09:53:00 68° W 09:59:00 10° S
Okean 1 3.8 09:50:27 10° SSW 09:54:12 37° W 09:57:56 10° NNW
COSMOS 2428 2.7 09:50:30 10° SSW 09:56:11 77° WNW 10:01:52 10° NNE
Cosmos 2227 4.2 09:50:54 10° NNW 09:56:24 58° WSW 10:01:53 10° S
SAR-Lupe-1 4.5 09:53:19 10° S 09:56:39 39° W 09:59:59 10° NNW
PSLV R/B 4.4 09:52:58 10° SSE 09:56:58 66° ENE 10:00:57 10° N
Meteor 1-18 Rocket 4.3 09:51:53 10° SSW 09:57:23 58° W 10:02:49 10° N
CZ-4B R/B 3.9 09:54:40 10° NNW 09:57:24 21° WNW 10:00:09 10° SW
Cosmos 2219 Rocket 2.3 09:52:49 10° SSW 09:58:21 60° WNW 10:03:55 10° N
